Location: Diedersen
(52.0974°N, 9.4647°E)
Time: 08:42:32
(UTC+00:00)

Daily predictions for brighter satellites

Satellite Brightness Start Highest point End
(mag) Time Altitude Azimuth Time Altitude Azimuth Time Altitude Azimuth
Cosmos 1864 Rocket 4.5 16:55:39 10° N 17:01:47 70° ENE 17:07:54 10° SSE
Cosmos 1356 Rocket 3.8 16:58:22 10° N 17:02:02 36° ENE 17:05:41 10° SE
USA 267 3.3 16:55:40 10° ENE 17:02:15 82° SSE 17:08:50 10° WSW
Cosmos 2297 Rocket 3.7 17:03:08 10° SE 17:06:18 15° E 17:09:29 10° ENE
USA 290 3.3 17:04:01 10° SSE 17:06:45 26° ESE 17:09:29 10° NE
Cosmos 1441 Rocket 2.8 17:03:31 10° SSW 17:06:52 89° W 17:10:13 10° NNE
In-Cosmos 22 Rocket 4.2 17:01:55 10° S 17:07:23 76° E 17:13:03 10° NNE
Cosmos 841 Rocket 4.0 17:03:06 10° SW 17:08:13 61° WNW 17:13:21 10° NNE
SAR-Lupe-5 4.4 17:06:29 10° NNE 17:09:01 45° ESE 17:11:24 10° S
ATLAS 3B R/B 4.5 17:02:03 10° NW 17:09:13 42° WSW 17:16:03 10° S
Cosmos 1814 Rocket 4.4 17:04:53 10° S 17:09:50 42° ESE 17:14:45 10° NE
SAR-Lupe-4 3.6 17:06:50 10° SSE 17:10:21 60° ENE 17:13:54 10° N
Cosmos 1125 Rocket 3.9 17:07:09 10° NNW 17:12:05 41° NE 17:16:59 10° SE
Cosmos 1455 Rocket 4.3 17:09:45 10° NNE 17:12:56 20° ENE 17:16:06 10° ESE
IRS-1C 4.4 17:08:50 10° S 17:14:09 75° WSW 17:19:31 10° NNW
YAOGAN 1 2.5 17:17:19 10° SSE 17:21:30 59° ENE 17:25:43 10° N
Okean 2 Rocket 3.3 17:17:36 10° N 17:21:53 46° ENE 17:26:06 10° SSE
Cosmos 2123 Rocket 4.0 17:16:13 10° S 17:22:31 78° E 17:28:51 10° NNE
Cosmos 1900 4.4 17:18:34 10° SSW 17:23:39 76° SE 17:28:42 10° NE
NOAA 6 4.3 17:19:38 10° SE 17:24:33 47° ENE 17:29:30 10° N
Okean 1 Rocket 3.4 17:21:07 10° N 17:25:22 44° ENE 17:29:33 10° SE
Spot 4 Rocket 4.1 17:21:45 10° SSE 17:26:46 59° ENE 17:31:48 10° N
COSMOS 2428 2.7 17:21:49 10° NNW 17:27:36 83° ENE 17:33:20 10° SSE
Cosmos 1980 3.9 17:25:47 10° NNW 17:31:17 49° NE 17:36:45 10° SE
Sich 1 Rocket 3.8 17:27:00 10° N 17:31:26 48° ENE 17:35:50 10° SSE
ARIANE 5 R/B 3.6 17:28:29 10° S 17:33:28 51° W 17:38:25 10° NNW
Aureole 3 Rocket 3.2 17:32:36 10° N 17:36:54 40° ENE 17:40:15 10° SE
Cosmos 2237 Rocket 2.4 17:31:23 10° NNW 17:36:54 50° NE 17:42:26 10° SE
Cosmos 158 Rocket 3.8 17:32:59 10° S 17:37:46 63° ESE 17:42:35 10° NNE
ATLAS 5 CENTAUR R/B 3.0 17:34:30 10° WNW 17:38:30 41° SW 17:43:22 10° SSE
Cosmos 192 4.3 17:33:42 10° NNW 17:38:37 90° WSW 17:43:29 10° SSE
SeaSat 1 3.8 17:35:44 10° S 17:40:23 43° WSW 17:45:04 10° NW
Cosmos 1378 Rocket 3.4 17:36:39 10° S 17:40:58 85° E 17:45:17 10° NNE
Resurs 01 Rocket 1.8 17:37:38 10° SE 17:41:51 47° ENE 17:46:05 10° N
ARIANE 6 FM1 Upper Stage 4.1 17:39:02 10° NW 17:42:14 23° NNE 17:44:13 16° NE
SKYMED 2 3.5 17:37:54 10° NNE 17:42:16 80° ESE 17:46:37 10° SSW
GP-B 3.5 17:40:33 10° S 17:44:53 66° W 17:49:15 10° N
Cosmos 2219 Rocket 4.3 17:41:31 10° NW 17:46:19 30° WSW 17:51:06 10° SSW
COSMO-SKYMED 1 2.5 17:42:31 10° NNE 17:46:34 53° E 17:50:36 10° S
Cosmos 2228 4.0 17:44:38 10° NNE 17:48:01 23° ENE 17:49:16 20° E
Cosmos 2292 Rocket 3.8 17:47:39 10° SSW 17:50:26 44° WNW 17:53:24 10° N
PSLV R/B 3.3 17:47:33 10° SSE 17:51:40 77° ENE 17:55:47 10° NNW
Cosmos 2322 4.2 17:46:07 10° NW 17:51:47 63° WSW 17:57:24 10° SSE
NOSS 3-3 (A) 3.9 17:47:37 10° SSW 17:52:38 51° SE 17:57:36 15° NE
USA 306 2.7 17:51:25 10° WNW 17:54:06 35° SW 17:55:02 22° SSE
Resurs 1-3 4.0 17:51:10 10° S 17:55:26 64° WSW 17:59:44 10° NNW
Cosmos 1782 4.4 17:53:57 10° NNE 17:55:10 15° NE 17:55:10 15° NE
Cosmos 2285 Rocket 4.0 17:52:14 10° NNW 17:58:43 78° ENE 18:05:08 10° SSE
Cosmos 1025 Rocket 2.9 17:55:00 10° S 17:59:16 75° E 18:03:37 10° NNE
SJ-7 4.3 17:55:46 10° S 17:59:28 77° W 18:03:10 10° NNW
SL-16 R/B 3.1 17:55:17 10° NNW 18:00:13 29° NE 18:02:26 23° ENE
Cosmos 2227 Rocket 3.7 18:01:13 10° SE 18:03:35 17° ESE 18:03:35 17° ESE
SJ-6B 2.5 18:05:14 10° SSE 18:08:37 56° ENE 18:12:00 10° N
NOSS 3-4 (A) 3.7 18:02:43 10° NW 18:09:12 71° NE 18:15:10 18° ESE
NOSS 3-4 (C) 3.7 18:02:59 10° NW 18:09:28 70° NE 18:15:23 18° ESE
Cosmos 2233 Rocket 4.5 18:03:26 10° NNW 18:09:38 65° W 18:15:51 10° S
SPOT 5 3.5 18:08:20 24° ESE 18:10:32 36° ENE 18:15:09 10° N
CZ-2D R/B 4.4 18:09:34 10° S 18:13:21 47° W 18:17:13 10° NNW
Cosmos 2034 Rocket 4.5 18:09:31 10° N 18:15:10 36° ENE 18:18:04 24° ESE
Cosmos 1674 Rocket 4.0 18:11:10 10° SSW 18:15:31 63° WNW 18:19:56 10° N
Cosmos 1513 Rocket 4.4 18:11:20 10° N 18:17:35 71° ENE 18:23:54 10° SSE
Okean O Rocket 3.9 18:24:53 10° NNE 18:24:53 10° NNE 18:25:01 10° NNE
Cosmos 1867 4.0 18:18:18 10° SW 18:23:41 63° NW 18:27:56 17° NE
ATLAS 2AS CENTAUR R/B 3.8 18:20:07 10° W 18:26:25 36° NNW 18:31:15 16° NE
CZ-4 R/B 2.6 18:28:09 24° NNE 18:28:09 24° NNE 18:30:01 10° N
CZ-4B R/B 3.9 18:26:46 31° ENE 18:27:01 31° ENE 18:31:38 10° N
Lacrosse 5 rocket 1.2 18:24:05 10° WSW 18:27:34 59° NNW 18:28:21 46° NNE
CZ-4B DEB 4.4 18:29:55 33° ESE 18:31:48 46° ENE 18:36:59 10° N
Meteor 1-31 Rocket 3.4 18:32:59 35° NNE 18:32:59 35° NNE 18:35:17 10° N
ADEOS 4.2 18:32:00 34° ENE 18:32:03 34° ENE 18:36:43 10° N
CZ-4C R/B 1.8 18:28:44 10° SW 18:33:07 85° NW 18:36:09 27° NE
IRAS Rocket 4.4 18:29:42 10° SSE 18:35:18 77° WSW 18:40:58 10° NNW
CRYOSAT 2 4.3 18:31:55 10° N 18:36:51 88° W 18:41:44 10° S
USA 290 4.4 18:38:14 10° WSW 18:40:58 25° NW 18:43:01 14° N
USA 267 3.5 18:41:48 29° ENE 18:45:12 62° N 18:51:38 10° W
Cosmos 1464 Rocket 3.9 18:38:57 10° N 18:45:22 78° ENE 18:51:42 10° SSE
CSL-04 Debris 4.1 18:44:38 30° SE 18:47:22 69° ENE 18:52:47 10° NNW
ERS-1 Rocket 3.7 18:48:49 35° NE 18:48:49 35° NE 18:52:30 10° N
Cosmos 2297 Rocket 2.1 18:43:45 10° SSW 18:49:25 79° ESE 18:52:37 27° NE
Cosmos 1607 4.2 18:43:58 10° SW 18:50:04 66° NW 18:54:10 22° NE
CSL-04 Rocket 3.5 18:47:26 28° SSE 18:50:18 77° ENE 18:55:36 10° NNW
Cosmos 1570 Rocket 3.9 18:45:08 10° SSW 18:50:24 73° ESE 18:52:48 33° NE
Cosmos 1455 Rocket 3.6 18:46:46 10° NNW 18:50:59 55° W 18:55:09 10° S
Cosmos 1943 4.2 18:46:49 10° NNW 18:51:36 29° NE 18:51:36 29° NE
Cosmos 2344 4.1 18:44:56 10° S 18:51:12 34° SE 18:51:12 34° SE
DNEPR-1 R/B 3.8 18:48:17 10° NW 18:53:02 83° NE 18:54:13 55° SE
Cosmos 1975 Rocket 4.5 18:48:48 10° S 18:50:38 24° S 18:50:38 24° S
PAYLOAD B 4.1 19:05:28 61° ESE 19:06:16 71° ENE 19:11:52 10° NNW
Cosmos 2208 Rocket 3.8 19:02:22 10° SSW 19:07:29 74° ESE 19:07:29 74° ESE
Terra 3.1 19:11:52 29° N 19:11:52 29° N 19:14:20 10° N
NOSS 3-3 (C) 4.0 19:08:57 10° WSW 19:14:22 70° NW 19:16:44 39° NNE
Resurs 01 Rocket 3.9 19:14:52 10° SSW 19:18:26 24° W 19:22:02 10° NW
Cosmos 2237 Rocket 3.5 19:15:41 10° NW 19:20:50 37° WSW 19:25:52 11° S
ARIANE 6 FM1 Upper Stage 4.1 19:18:00 10° NW 19:20:14 31° NNW 19:20:14 31° NNW
Gblst 52 Del rocket 4.4 19:15:45 10° W 19:23:10 87° S 19:24:03 70° E
Cosmos 773 Rocket 4.0 19:19:40 10° SSW 19:24:56 80° WNW 19:25:07 79° NW
Cosmos 2228 4.0 19:21:14 10° NNW 19:25:11 42° W 19:25:37 41° WSW
SL-16 R/B 2.4 19:39:12 10° NNW 19:44:20 68° WNW 19:44:20 68° WNW
Cosmos 2227 Rocket 3.4 19:42:41 10° SSW 19:45:30 31° SSW 19:45:30 31° SSW
SPOT 5 4.2 19:47:23 34° SW 19:48:27 38° W 19:53:09 10° NNW
MOS 1 4.5 19:49:13 68° W 19:49:13 68° W 19:54:37 10° NNW
Okean O Rocket 4.3 20:02:07 13° NNW 20:02:07 13° NNW 20:02:36 10° NNW
CZ-4 R/B 4.2 20:03:09 14° NW 20:03:09 14° NW 20:03:51 10° NW
Lacrosse 5 rocket 4.3 20:01:29 10° WNW 20:01:48 12° WNW 20:01:48 12° WNW
CZ-4B R/B 4.2 20:08:36 43° WNW 20:08:36 43° WNW 20:12:35 10° NNW
Cosmos 1634 Rocket 4.5 20:04:56 10° NNW 20:10:07 58° NW 20:10:07 58° NW
BREEZE-M DEB (TANK) 4.4 19:58:19 10° W 20:10:45 50° SW 20:10:45 50° SW
ATLAS 2AS CENTAUR R/B 3.8 20:12:58 10° NW 20:18:40 33° N 20:18:40 33° N
CZ-4C R/B 3.7 20:17:39 10° W 20:21:07 30° NW 20:21:07 30° NW
USA 267 3.8 20:29:08 53° NW 20:29:08 53° NW 20:34:19 10° WNW
Cosmos 2297 Rocket 3.9 20:29:14 10° W 20:34:04 28° NW 20:34:29 28° NNW
